Location: St. Louis
(38.6270°N, 90.1994°W)
Time: 21:23:47
(UTC-06:00)

Vanguard 1 - Pass Details

Date: 07 December 2021
Orbit: 652 x 3830 km, 34.2° (Epoch: 21 January)

Event Time Altitude Azimuth Distance (km) Brightness Sun altitude
Rises 21:45:24 0° 225° (SW) 6,169 14.3 -58.6°
Reaches altitude 10° 21:49:01 10° 220° (SW) 5,509 13.9 -59.3°
Enters shadow 21:53:54 25° 212° (SSW) 4,765 13.4 -60.1°
